Regional Weather Roundup
Issued by NWS Memphis, TN

Home | Current Version | Previous Version | Text Only | Print | Product List | Glossary On
Versions: 1 2 3 4 5 6 7 8 9 10 11 12 13 14 15 16 17 18 19 20 21 22 23 24 25 26 27 28 29 30 31 32 33 34 35 36 37 38 39 40 41 42 43 44 45 46 47 48 49 50
000
ASUS44 KMEG 220910
RWRMEG
MEMPHIS CWA HOURLY WEATHER ROUNDUP
NATIONAL WEATHER SERVICE MEMPHIS TN
400 AM CDT SUN OCT 22 2017

...WEST TENNESSEE...

CITY           SKY/WX    TMP DP  RH WIND       PRES   REMARKS
MEMPHIS INTL   CLOUDY    71  64  78 SE10      30.00S
NWS MEMPHIS      N/A     71 N/A N/A MISG        N/A
JACKSON        MOCLDY    69  62  78 S8        30.04F
COVINGTON      CLOUDY    72  63  73 S10       30.01S
SOMERVILLE     CLOUDY    72  63  73 S8G16     30.02S
BOLIVAR        CLOUDY    68  63  83 SE8G15    30.04S
SELMER         PTCLDY    66  61  82 S10       30.06R
SAVANNAH       MOCLDY    66  61  82 S9        30.06F
DYERSBURG        N/A     69  63  81 SE9       30.01F
UNION CITY     MOCLDY    70  63  78 S9G16     30.01S
HUNTINGDON     CLOUDY    68  61  77 S8        30.05R


...EASTERN ARKANSAS...

CITY           SKY/WX    TMP DP  RH WIND       PRES   REMARKS
JONESBORO      CLOUDY    73  66  78 S15       29.96R
WEST MEMPHIS   PTCLDY    71  66  84 S15       29.98S
BATESVILLE     LGT RAIN  72  70  94 S12G21    29.92F
NEWPORT        LGT RAIN  71  67  87 S18       29.93F
WALNUT RIDGE   CLOUDY    71  66  84 S20       29.92F
BLYTHEVILLE    MOCLDY    72  64  76 S12       29.99S
SEARCY         CLOUDY    73  72  96 S16       29.94S
STUTTGART      CLOUDY    75  69  81 S16       29.97S
PINE BLUFF     CLOUDY    73  69  87 S9        29.97S
MONTICELLO     CLOUDY    72  69  90 SW3       29.97S


...NORTH MISSISSIPPI...

CITY           SKY/WX    TMP DP  RH WIND       PRES   REMARKS
TUPELO         CLOUDY    68  61  78 SE8       30.06F
BATESVILLE     CLEAR     71  64  79 SE6       30.00F
TUNICA           N/A    N/A N/A N/A SE7       30.00R
CLARKSDALE       N/A     73  70  88 S9        29.99R
CORINTH        CLOUDY    68  61  77 SE10      30.06R
GREENWOOD      CLOUDY    74  64  71 S16G24    29.99S
COLUMBUS       CLOUDY    68  63  85 SE12      30.05F
STARKVILLE     CLOUDY    68  63  83 SE9       30.06S
GOLDEN TRIANGL CLOUDY    68  63  84 SE12      30.06F


...SOUTHEAST MISSOURI...

CITY           SKY/WX    TMP DP  RH WIND       PRES   REMARKS
KENNETT        CLOUDY    72  64  78 S12G20    29.97R
MALDEN         PTCLDY    72  63  73 S10       29.98R
WEST PLAINS    HVY RAIN  58  55  90 W12G20    29.94R FOG
POPLAR BLUFF   MOCLDY    70  64  81 S15G23    29.93F
CAPE GIRARDEAU CLOUDY    68  60  75 SE12      29.96F


...NORTHWEST ALABAMA...

CITY           SKY/WX    TMP DP  RH WIND       PRES   REMARKS
MUSCLE SHOALS  CLOUDY    63  57  81 E3        30.13S


...MIDDLE TENNESSEE...

CITY           SKY/WX    TMP DP  RH WIND       PRES   REMARKS
NASHVILLE      MOCLDY    63  54  72 SE7       30.14F
CLARKSVILLE    CLOUDY    62  54  74 SE7       30.09F
COLUMBIA       CLEAR     66  55  68 VRB7      30.10F


...WESTERN KENTUCKY...

CITY           SKY/WX    TMP DP  RH WIND       PRES   REMARKS
PADUCAH        MOCLDY    68  59  73 S9        30.01F
FORT CAMPBELL  MOCLDY    63  55  77 SE7       30.09S


...CENTRAL ARKANSAS...

CITY           SKY/WX    TMP DP  RH WIND       PRES   REMARKS
LITTLE ROCK    LGT RAIN  72  71  97 S12       29.95R


SKY/WX REPORTED AS FAIR MEANS FEW OR NO CLOUDS BELOW
12 THOUSAND FEET.




USA.gov is the U.S. government's official web portal to all federal, state and local government web resources and services.